AQI (63)

Current Conditions for Foresthill, CA. Clear skies, Dry   
Visibility: 10 miles
Foresthill Advisory text:

  Summary / Temperature 

Current Temperature
51.5°F
10.8°C
(24/hr Ago)
51.5°F
(Apparent temp)
50.8°F
Cool
Wind Chill Graphs
51.5°F 

52.5°F/ 11.4°C
 --- Virtual Temp: 53.8°F ---

 Temp Rate:

 24/hr Difference:

 Avg Running Temp:

 Todays High:

 Todays Low:

 Y-days High:

 Y-days Low:

 Todays WChill:

 Y-days WChill:

 Evapotranspiration:

-2.2°F/hr 

0°F

53.6°F

58.9°F 1:47pm

47.2°F 5:01am

58.2°F 2:28pm

44.7°F 6:20am

42.5°F 6:46am

34.8°F 6:21am

0.054 in

115' Above Ground

 Temperature:

 6'AGL VRS 115'AGL:

 Avg Running Temp:

 Humidity:

 Todays High:

 Todays Low:

 Y-days High:

 Y-days Low:

55.0°F 

+3.5°F

55.6°F

73% 

63.0°F 1:51pm

50.0°F 4:34am

61.0°F 1:54pm

46.0°F 5:44am

Temp & Humidity Graphs

  Wind 

Wind Speed

 Calm

Gusting to

 None

Calm

181°  

Calm

 Avg speed:

 Wind Run:

 Peak Gust:

Calm 

21.0 miles

  16.0 mph 6:41am

  Almanac  

Moon age: 0 days,21 hours,19 minutes,1%

New moon
1%
Illuminated
0 days in cycle

 Moonrise:

 Moonset:

 Sunrise:

 Sunset:

 Solar Noon:

7:39am

5:56pm

7:17am

5:05pm

12:14pm

1min 33s more daylight tomorrow 

  Solar Radiation 

(Current Solar)
  No Sun Light
(Todays High)
 533 W/m2@12:18pm

Rain

 Rain Today:

 Rain Rate (/hr):

 Rain last hour:

 Rain Yesterday:

 This Month:

 Season Total:

1 Day Since Last Dry Day

0.00 in

0.000 in

0.00 in

0.11 in

5.39 in

18.70 in

Updated Time

Updated: 1/17/18  6:14pm

(Updated  sec ago)

Humidity & Barometer

 Humidity:

 Wetbulb:

 Dew Point:

 Barometer:

85% 

49.2°F 

47.1°F 

30.239 inHg 

 Baro Trend:  Steady 
Northern Calif
Preparedness
Fire 
Level 

    UV Index  

(Current UV)
0.0  None
(Todays High) @ 12:16pm
2.3   Low

National Weather Service Forecast

This
Afternoon
This Afternoon: Partly Sunny
Partly Sunny
Tonight

Tonight: Mostly Cloudy
Mostly Cloudy
Thursday

Thursday: Heavy Rain
Heavy Rain
Thursday
Night
Thursday Night: Heavy Rain
Heavy Rain
Friday

Friday: Chance Rain And Snow Showers
Chance Rain And Snow Showers
Friday
Night
Friday Night: Chance Rain And Snow Showers
Chance Rain And Snow Showers
Hi 61 °F Lo 46 °F Hi 53 °F Lo 38 °F Hi 43 °F Lo 31 °F

Foresthill Probe 2 Stats  
Foresthill Probe 2: is located on Thomas Street
at 3000 feet. The main Foresthill Weather site
is located on Melody ln at the 2860 foot elevation

Calm
50.9°F
10.5°C
Temp Rate:
-2.5°F
Calm
Gusting to
None
(Humidity)
85%
Calm
192°  
Updated: 17/01/18 - 18:11:58
 Todays High: 59.0°F 13:56
 Todays Low: 45.1°F 04:48
 Rain Today: 0.00 in
 Season Total: 19.45 in

Foresthill Wx: Monthly,Yearly, Highs and Lows 

Foresthill  
This Weather Data is coming from the main Foresthill
Weather site located on Melody ln at the 2860 foot
elevation
Not Foresthill Probe 2
Weather Data
Month
  High
Month
  Low
Year
High
Year
Low
Temp 63.0°F
1/14/18
39.9°F
1/7/18
63.0°F
1/14/18
39.9°F
1/7/18
Humidity 100%
1/8/18
37%
1/1/18
100%
1/8/18
37%
1/1/18
Heat Index 64.3°F
1/14/18
44.1°F
1/7/18
64.3°F
1/14/18
44.1°F
1/7/18
Wind Chill 63.0°F
1/14/18
31.8°F
1/7/18
63.0°F
1/14/18
31.8°F
1/7/18
Wind Gust 31 mph
1/16/18
0 mph
1/1/18
31 mph
1/16/18
0 mph
1/1/18
Barometer 30.44 in
1/12/18
29.63 in
1/9/18
30.44 in
1/12/18
29.63 in
1/9/18
ET 0.08 in
1/1/18
0.00 in
1/1/18
0.08 in
1/1/18
0.00 in
1/1/18
Dew Point 52.5°F
1/5/18
27.1°F
1/1/18
52.5°F
1/5/18
27.1°F
1/1/18
Pacific Satellite US Radar Satellite Imagery Sacramento,CA.  (click to enlarge)
NWS Weather Forecast - Summary
Updated: Wed Jan 17 2018 .DISC - 2:51pm (PST)
Current Interstate Highway Conditions for I-80 & US-50

[I 80: IN THE SAN FRANCISCO BAY AREA - SOLANO CO]
no traffic restrictions are reported for this area.


[I 80: IN THE NORTHERN CALIFORNIA AREA & SIERRA NEVADA]
no traffic restrictions are reported for this area.

[US 50: IN THE SACRAMENTO VALLEY & THE LAKE TAHOE BASIN]
  1-way controlled traffic at 33 mile stone rd /in kyburz/ (EL DORADO CO) from 8:00am to 3:00pm wednesday thru thursday thru 1/18/18 - due to maintenance
  1-way controlled traffic at various locations from north airport rd to "e" street /in south lake tahoe/ (EL DORADO CO) from 7:00am to 4:00pm wednesday thru thursday thru 1/18/18 - due to maintenance
NWS Weather Forecast: This Afternoon and Tonight (Updated: Wed, 17-Jan-2018 2:16am PST)
This
Afternoon
This Afternoon: Partly Sunny
Partly Sunny

Hi 61 °F
NWS forecast: Partly sunny. High near 61, with temperatures falling to around 54 in the afternoon. South wind around 5 mph.
Tonight

Tonight: Mostly Cloudy
Mostly Cloudy

Lo 46 °F
NWS forecast: Mostly cloudy, with a low around 46. South southeast wind 5 to 8 mph.
YR.NO 10 Day Weather forecast
Last update: 01/17/2018 @ 11:38
Next update: 01/18/2018 @ 00:00
Provided by: 22
      Temperature Precipitation Pressure Wind  
Today
01/17/2018
18:00 00:00 48°F   30.17 inHg Light breeze from east 4 mph
    (Click to enlarge)
meteogram

    Forecast for next 9 days

      Temperature Precip Pressure Wind  
Thursday
01/18/2018
00:00 06:00 43°F   30.19 inHg Light breeze from east 4 mph
  06:00 12:00 45°F   30.11 inHg Light breeze from east-southeast 6 mph
  12:00 18:00 52°F 0.40 in 30.07 inHg Light breeze from south-southwest 6 mph
  18:00 00:00 46°F 0.55 in 29.99 inHg Gentle breeze from southwest 10 mph
      Temperature Precip Pressure Wind  
Friday
01/19/2018
00:00 06:00 41°F 0.11 in 30.09 inHg Gentle breeze from south-southwest 8 mph
  06:00 12:00 36°F   30.13 inHg Light air from southeast 3 mph
  12:00 18:00 43°F   30.11 inHg Light breeze from southwest 5 mph
  18:00 00:00 36°F   30.06 inHg Light air from west-northwest 2 mph
      Temperature Precip Pressure Wind  
Saturday
01/20/2018
00:00 06:00 27°F   30.09 inHg Light breeze from east-northeast 5 mph
  04:00 10:00 23°F   30.08 inHg Light breeze from east-northeast 6 mph
  10:00 16:00 39°F   30.12 inHg Light air from northeast 2 mph
  16:00 22:00 41°F   30.10 inHg Light breeze from west 4 mph
  22:00 04:00 25°F   30.22 inHg Light breeze from east-northeast 4 mph
      Temperature Precip Pressure Wind  
Sunday
01/21/2018
04:00 10:00 23°F   30.26 inHg Light breeze from east-northeast 5 mph
  10:00 16:00 41°F   30.35 inHg Light air from south 2 mph
  16:00 22:00 41°F   30.33 inHg Light air from south-southwest 3 mph
  22:00 04:00 34°F 0.14 in 30.35 inHg Light breeze from east-southeast 5 mph
      Temperature Precip Pressure Wind  
Monday
01/22/2018
04:00 10:00 36°F 0.23 in 30.30 inHg Light breeze from east 6 mph
  10:00 16:00 39°F 0.09 in 30.30 inHg Light breeze from southeast 7 mph
  16:00 22:00 41°F   30.31 inHg Light breeze from south-southwest 5 mph
  22:00 04:00 39°F   30.33 inHg Light air from northeast 2 mph
      Temperature Precip Pressure Wind  
Tuesday
01/23/2018
04:00 10:00 27°F   30.27 inHg Light breeze from east-northeast 5 mph
  10:00 16:00 43°F   30.30 inHg Light air from east-southeast 2 mph
  16:00 22:00 46°F   30.24 inHg Light air from southwest 3 mph
  22:00 04:00 32°F 0.08 in 30.29 inHg Light breeze from east 4 mph
      Temperature Precip Pressure Wind  
Wednesday
01/24/2018
04:00 10:00 37°F 0.36 in 30.27 inHg Light breeze from east-southeast 5 mph
  10:00 16:00 39°F 0.35 in 30.27 inHg Light breeze from southeast 6 mph
  16:00 22:00 41°F 0.28 in 30.09 inHg Moderate breeze from south 15 mph
  22:00 04:00 37°F 0.13 in 30.12 inHg Light breeze from south 7 mph
      Temperature Precip Pressure Wind  
Thursday
01/25/2018
04:00 10:00 34°F 0.05 in 30.12 inHg Light breeze from southwest 6 mph
  10:00 16:00 34°F   30.24 inHg Light air from west-northwest 3 mph
  16:00 22:00 36°F   30.22 inHg Light breeze from west-northwest 7 mph
  22:00 04:00 21°F   30.28 inHg Light breeze from east-northeast 5 mph
      Temperature Precip Pressure Wind  
Friday
01/26/2018
04:00 10:00 18°F   30.29 inHg Light breeze from east-northeast 7 mph
  10:00 16:00 37°F   30.35 inHg Light breeze from east-northeast 4 mph
  16:00 22:00 41°F   30.30 inHg Light breeze from west-northwest 5 mph
  22:00 04:00 27°F   30.34 inHg Light breeze from east-northeast 6 mph

NOAA Local Storm Report
5 MILES SOUTHEAST OF ELKO   ( More )
DATE
01/17/2018
TIME
4:33 AM
COUNTY
ELKO
STATE
NV
GEOGRAPHIC
40.79N 115.70W
SOURCE
LAW ENFORCEMENT
DENSE FOG
dense freezing fog with visibility less than 0. 25 miles. Multiple vehicles slid off the road due to icy conditions in the elko/spring creek areas.
How Close Are We To this Month's Temperature Record ?
Updated Wednesday, Jan 17, 2018- 6:10:01 PM

Current Temperature: 51.5°F

January's High: Temperature Record 71.3°F - Set on Sat, Jan 24, 2015 - 3:19:00 PM
We are currently 19.8°F Less than this Month's record High

January's Low: Temperature Record 24.7°F - Set on Sun, Jan 13, 2013 - 7:29:00 AM
We are currently 26.8°F More than this Month's record Low

Weather History For Wednesday, January 17, 2018


On this Day - In Weather History ...
Data courtesy of weatherforyou.com
powered by Cumulus v1.9.3 (1059)
Ambient Weather VWS v14.00
Top Contact Website Map Copyright © 2007 - 2018 Foresthillweather.com Never base important decisions on this or any weather information obtained from the Internet